Terug naar catalogus

STARLINK-33845

ActiefCommunicatieVLEO
NORAD 63495·PAYLOAD·🇺🇸 United States

Gelanceerd Apr 7, 2025 vanaf Vandenberg Space Force Base

Loading…

Volgende Passages (komende 24 uur)

TLE

VersSource: CelesTrak SupGP

Epoch: Sep 15, 2026, 03:51 UTC

1 63495C 25071C   26258.16090278  .00066391  00000+0  19618-2 0  2587
2 63495  53.1596 338.8753 0001480  87.5473 234.3507 15.34353601    18

Volg STARLINK-33845 in realtime met AllMySat

Download on the App Store